Weather History for Vigo, Spain

Change the Weather History Date:

Saturday, August 31, 2013

  Actual Average Record
Temperature  
Mean Temperature 75 °F -  
Max Temperature 91 °F 71 °F 93 °F (2010)
Min Temperature 59 °F 55 °F 53 °F (2012)
Cooling Degree Days 10    
Growing Degree Days 25 (Base 50)    
Moisture  
Dew Point 55 °F    
Average Humidity 57    
Maximum Humidity 88    
Minimum Humidity 25    
Precipitation  
Precipitation 0.00 in 0.15 in - ()
Sea Level Pressure  
Sea Level Pressure 30.16 in    
Wind  
Wind Speed 4 mph ()    
Max Wind Speed 12 mph    
Max Gust Speed -    
Visibility 18.0 miles    
Events      
Averages and records for this station are not official NWS values.
T = Trace of Precipitation, MM = Missing Value Source: Averaged Metar Reports

Daily Weather History Graph

Daily Weather History Graph

Search for Another Location

Airport:

Trip Planner

Search our weather history database for the weather conditions in past years. The results will help you decide how hot, cold, wet, or windy it might be!

Date:

Astronomy

Aug. 31, 2013 Rise Set
Actual Time 7:58 AM CEST 9:09 PM CEST
Civil Twilight 7:29 AM CEST 9:38 PM CEST
Nautical Twilight 6:55 AM CEST 10:13 PM CEST
Astronomical Twilight 6:18 AM CEST 10:49 PM CEST
Moon 3:12 AM CEST (8/31) 6:02 PM CEST (8/31)
Length of Visible Light 14h 08m
Length of Day
13h 11m
Waning Crescent, 23% of the Moon is Illuminated
Aug 31
Waning Crescent
Sep 5
New
Sep 12
First Quarter
Sep 19
Full
Sep 27
Last Quarter

Hourly Weather History & Observations

Time (CEST) Temp. Heat Index Dew Point Humidity Pressure Visibility Wind Dir Wind Speed Gust Speed Precip Events Conditions
12:00 AM 68.0 °F - 55.4 °F 64% 30.18 in - NNE 5.8 mph - N/A   Clear
12:30 AM 68.0 °F - 55.4 °F 64% 30.18 in - NNE 3.5 mph - N/A   Clear
1:00 AM 66.2 °F - 55.4 °F 68% 30.18 in - Variable 1.2 mph - N/A   Clear
1:30 AM 64.4 °F - 51.8 °F 64% 30.18 in - Calm Calm - N/A   Clear
2:00 AM 64 °F - 51 °F 52% 30.17 in 16 mi Calm Calm - -  
2:00 AM 64.4 °F - 51.8 °F 64% 30.18 in - Calm Calm - N/A   Clear
2:30 AM 66.2 °F - 53.6 °F 64% 30.15 in - Variable 1.2 mph - N/A   Clear
3:00 AM 64.4 °F - 55.4 °F 73% 30.15 in - SSW 9.2 mph - N/A   Clear
3:30 AM 64.4 °F - 55.4 °F 73% 30.15 in - SSW 6.9 mph - N/A   Clear
4:00 AM 64.4 °F - 55.4 °F 73% 30.15 in - Calm Calm - N/A   Clear
4:30 AM 62.6 °F - 55.4 °F 77% 30.15 in - Variable 1.2 mph - N/A   Clear
5:00 AM 62.6 °F - 55.4 °F 77% 30.15 in - Variable 2.3 mph - N/A   Clear
5:30 AM 62.6 °F - 55.4 °F 77% 30.15 in - Calm Calm - N/A   Clear
6:00 AM 60.8 °F - 55.4 °F 82% 30.15 in - Variable 1.2 mph - N/A   Clear
6:30 AM 60.8 °F - 55.4 °F 82% 30.15 in - SSW 6.9 mph - N/A   Clear
7:00 AM 59.0 °F - 55.4 °F 88% 30.15 in - South 3.5 mph - N/A   Clear
7:30 AM 59.0 °F - 55.4 °F 88% 30.15 in - Variable 1.2 mph - N/A   Clear
8:00 AM 59.0 °F - 55.4 °F 88% 30.15 in - South 4.6 mph - N/A   Clear
8:30 AM 59.0 °F - 55.4 °F 88% 30.18 in - Variable 6.9 mph - N/A   Clear
9:00 AM 59.0 °F - 55.4 °F 88% 30.18 in - SSW 10.4 mph - N/A   Clear
9:30 AM 60.8 °F - 55.4 °F 82% 30.18 in - SSW 9.2 mph - N/A   Clear
10:00 AM 62.6 °F - 57.2 °F 82% 30.18 in - South 6.9 mph - N/A   Clear
10:30 AM 64.4 °F - 57.2 °F 77% 30.18 in - South 4.6 mph - N/A   Clear
11:00 AM 64.4 °F - 57.2 °F 77% 30.18 in - SSW 6.9 mph - N/A   Clear
11:30 AM 68.0 °F - 59.0 °F 73% 30.18 in - SSW 4.6 mph - N/A   Clear
12:00 PM 71.6 °F - 59.0 °F 64% 30.18 in - SSW 4.6 mph - N/A   Clear
12:30 PM 75.2 °F - 57.2 °F 53% 30.18 in - South 3.5 mph - N/A   Clear
1:00 PM 77.0 °F - 59.0 °F 54% 30.21 in - South 3.5 mph - N/A   Clear
1:30 PM 78.8 °F - 59.0 °F 51% 30.18 in - Variable 2.3 mph - N/A   Clear
2:00 PM 87 °F - 57 °F 25% 30.15 in 19 mi ESE 2.3 mph - -  
2:00 PM 82.4 °F 82.5 °F 59.0 °F 45% 30.18 in - Variable 2.3 mph - N/A   Clear
2:30 PM 86.0 °F - 51.8 °F 31% 30.18 in - Variable 1.2 mph - N/A   Clear
3:00 PM 86.0 °F - 50.0 °F 29% 30.18 in - Variable 2.3 mph - N/A   Clear
3:30 PM 87.8 °F - 51.8 °F 29% 30.18 in - Variable 1.2 mph - N/A   Clear
4:00 PM 86.0 °F 84.2 °F 53.6 °F 33% 30.18 in - NE 3.5 mph - N/A   Clear
4:30 PM 87.8 °F - 50.0 °F 27% 30.15 in - NE 3.5 mph - N/A   Clear
5:00 PM 87.8 °F - 50.0 °F 27% 30.15 in - Variable 3.5 mph - N/A   Clear
5:30 PM 87.8 °F 85.7 °F 53.6 °F 31% 30.15 in - Variable 4.6 mph - N/A   Clear
6:00 PM 86.0 °F 84.2 °F 53.6 °F 33% 30.15 in - West 8.1 mph - N/A   Clear
6:30 PM 86.0 °F 84.2 °F 53.6 °F 33% 30.15 in - West 6.9 mph - N/A   Clear
7:00 PM 86.0 °F 84.5 °F 55.4 °F 35% 30.15 in - West 6.9 mph - N/A   Clear
7:30 PM 82.4 °F 81.7 °F 55.4 °F 39% 30.12 in - West 6.9 mph - N/A   Clear
8:00 PM 85 °F - 54 °F 25% 30.10 in 19 mi NW 4.6 mph - -  
8:00 PM 84.2 °F 83.0 °F 55.4 °F 37% 30.12 in - NW 4.6 mph - N/A   Clear
8:30 PM 82.4 °F 81.4 °F 53.6 °F 37% 30.12 in - NNW 11.5 mph - N/A   Clear
9:00 PM 80.6 °F 80.3 °F 53.6 °F 39% 30.15 in - North 11.5 mph - N/A   Clear
9:30 PM 78.8 °F - 53.6 °F 42% 30.15 in - North 9.2 mph - N/A   Clear
10:00 PM 77.0 °F - 55.4 °F 47% 30.15 in - North 10.4 mph - N/A   Clear
10:30 PM 73.4 °F - 55.4 °F 53% 30.15 in - NNE 5.8 mph - N/A   Clear
11:00 PM 71.6 °F - 55.4 °F 57% 30.18 in - NNE 8.1 mph - N/A   Clear
11:30 PM 69.8 °F - 55.4 °F 60% 30.18 in - NNE 4.6 mph - N/A   Clear